Year,Month,Day,Hour,Minute,Value (Times are PST for temperature in C)
2021,06,22,00,00,21.80
2021,06,22,00,01,21.80
2021,06,22,00,02,21.90
2021,06,22,00,03,21.90
2021,06,22,00,04,21.90
2021,06,22,00,05,21.90
2021,06,22,00,06,22.00
2021,06,22,00,07,22.10
2021,06,22,00,08,22.10
2021,06,22,00,09,22.10
2021,06,22,00,10,22.10
2021,06,22,00,11,22.20
2021,06,22,00,12,22.20
2021,06,22,00,13,22.20
2021,06,22,00,14,22.30
2021,06,22,00,15,22.30
2021,06,22,00,16,22.30
2021,06,22,00,17,22.30
2021,06,22,00,18,22.30
2021,06,22,00,19,22.30
2021,06,22,00,20,22.20
2021,06,22,00,21,22.20
2021,06,22,00,22,22.10
2021,06,22,00,23,22.00
2021,06,22,00,24,21.80
2021,06,22,00,25,21.70
2021,06,22,00,26,21.60
2021,06,22,00,27,21.50
2021,06,22,00,28,21.50
2021,06,22,00,29,21.30
2021,06,22,00,30,21.30
2021,06,22,00,31,21.30
2021,06,22,00,32,21.20
2021,06,22,00,33,21.20
2021,06,22,00,34,21.30
2021,06,22,00,35,21.30
2021,06,22,00,36,21.30
2021,06,22,00,37,21.40
2021,06,22,00,38,21.40
2021,06,22,00,39,21.50
2021,06,22,00,40,21.60
2021,06,22,00,41,21.80
2021,06,22,00,42,21.80
2021,06,22,00,43,21.90
2021,06,22,00,44,21.90
2021,06,22,00,45,22.00
2021,06,22,00,46,22.00
2021,06,22,00,47,22.10
2021,06,22,00,48,22.10
2021,06,22,00,49,22.10
2021,06,22,00,50,22.10
2021,06,22,00,51,22.10
2021,06,22,00,52,22.10
2021,06,22,00,53,22.10
2021,06,22,00,54,22.10
2021,06,22,00,55,22.00
2021,06,22,00,56,22.00
2021,06,22,00,57,22.00
2021,06,22,00,58,21.90
2021,06,22,00,59,21.90
2021,06,22,01,00,21.90
2021,06,22,01,01,21.90
2021,06,22,01,02,21.80
2021,06,22,01,03,21.80
2021,06,22,01,04,21.80
2021,06,22,01,05,21.80
2021,06,22,01,06,21.80
2021,06,22,01,07,21.80
2021,06,22,01,08,21.80
2021,06,22,01,09,21.80
2021,06,22,01,10,21.80
2021,06,22,01,11,21.80
2021,06,22,01,12,21.80
2021,06,22,01,13,21.80
2021,06,22,01,14,21.80
2021,06,22,01,15,21.80
2021,06,22,01,16,21.80
2021,06,22,01,17,21.80
2021,06,22,01,18,21.80
2021,06,22,01,19,21.80
2021,06,22,01,20,21.80
2021,06,22,01,21,21.80
2021,06,22,01,22,21.80
2021,06,22,01,23,21.80
2021,06,22,01,24,21.80
2021,06,22,01,25,21.70
2021,06,22,01,26,21.70
2021,06,22,01,27,21.70
2021,06,22,01,28,21.70
2021,06,22,01,29,21.60
2021,06,22,01,30,21.50
2021,06,22,01,31,21.50
2021,06,22,01,32,21.40
2021,06,22,01,33,21.30
2021,06,22,01,34,21.20
2021,06,22,01,35,21.10
2021,06,22,01,36,21.00
2021,06,22,01,37,20.90
2021,06,22,01,38,20.90
2021,06,22,01,39,20.80
2021,06,22,01,40,20.70
2021,06,22,01,41,20.60
2021,06,22,01,42,20.50
2021,06,22,01,43,20.30
2021,06,22,01,44,20.20
2021,06,22,01,45,20.20
2021,06,22,01,46,20.10
2021,06,22,01,47,20.00
2021,06,22,01,48,19.90
2021,06,22,01,49,19.90
2021,06,22,01,50,19.80
2021,06,22,01,51,19.80
2021,06,22,01,52,19.80
2021,06,22,01,53,19.80
2021,06,22,01,54,19.70
2021,06,22,01,55,19.70
2021,06,22,01,56,19.70
2021,06,22,01,57,19.70
2021,06,22,01,58,19.70
2021,06,22,01,59,19.70
2021,06,22,02,00,19.60
2021,06,22,02,01,19.60
2021,06,22,02,02,19.60
2021,06,22,02,03,19.60
2021,06,22,02,04,19.60
2021,06,22,02,05,19.60
2021,06,22,02,06,19.60
2021,06,22,02,07,19.50
2021,06,22,02,08,19.50
2021,06,22,02,09,19.50
2021,06,22,02,10,19.50
2021,06,22,02,11,19.50
2021,06,22,02,12,19.40
2021,06,22,02,13,19.40
2021,06,22,02,14,19.40
2021,06,22,02,15,19.40
2021,06,22,02,16,19.30
2021,06,22,02,17,19.30
2021,06,22,02,18,19.30
2021,06,22,02,19,19.30
2021,06,22,02,20,19.30
2021,06,22,02,21,19.30
2021,06,22,02,22,19.30
2021,06,22,02,23,19.30
2021,06,22,02,24,19.30
2021,06,22,02,25,19.20
2021,06,22,02,26,19.20
2021,06,22,02,27,19.20
2021,06,22,02,28,19.10
2021,06,22,02,29,19.10
2021,06,22,02,30,19.10
2021,06,22,02,31,19.00
2021,06,22,02,32,19.00
2021,06,22,02,33,18.90
2021,06,22,02,34,18.90
2021,06,22,02,35,18.80
2021,06,22,02,36,18.80
2021,06,22,02,37,18.80
2021,06,22,02,38,18.80
2021,06,22,02,39,18.70
2021,06,22,02,40,18.70
2021,06,22,02,41,18.70
2021,06,22,02,42,18.70
2021,06,22,02,43,18.70
2021,06,22,02,44,18.60
2021,06,22,02,45,18.60
2021,06,22,02,46,18.60
2021,06,22,02,47,18.60
2021,06,22,02,48,18.60
2021,06,22,02,49,18.50
2021,06,22,02,50,18.50
2021,06,22,02,51,18.40
2021,06,22,02,52,18.40
2021,06,22,02,53,18.40
2021,06,22,02,54,18.40
2021,06,22,02,55,18.40
2021,06,22,02,56,18.40
2021,06,22,02,57,18.40
2021,06,22,02,58,18.30
2021,06,22,02,59,18.30
2021,06,22,03,00,18.30
2021,06,22,03,01,18.30
2021,06,22,03,02,18.30
2021,06,22,03,03,18.30
2021,06,22,03,04,18.20
2021,06,22,03,05,18.20
2021,06,22,03,06,18.20
2021,06,22,03,07,18.20
2021,06,22,03,08,18.20
2021,06,22,03,09,18.20
2021,06,22,03,10,18.10
2021,06,22,03,11,18.10
2021,06,22,03,12,18.10
2021,06,22,03,13,18.10
2021,06,22,03,14,18.10
2021,06,22,03,15,18.00
2021,06,22,03,16,18.00
2021,06,22,03,17,18.00
2021,06,22,03,18,18.00
2021,06,22,03,19,18.00
2021,06,22,03,20,18.00
2021,06,22,03,21,18.00
2021,06,22,03,22,17.90
2021,06,22,03,23,17.90
2021,06,22,03,24,17.90
2021,06,22,03,25,17.90
2021,06,22,03,26,17.90
2021,06,22,03,27,17.80
2021,06,22,03,28,17.80
2021,06,22,03,29,17.80
2021,06,22,03,30,17.80
2021,06,22,03,31,17.70
2021,06,22,03,32,17.70
2021,06,22,03,33,17.70
2021,06,22,03,34,17.70
2021,06,22,03,35,17.70
2021,06,22,03,36,17.70
2021,06,22,03,37,17.70
2021,06,22,03,38,17.70
2021,06,22,03,39,17.60
2021,06,22,03,40,17.60
2021,06,22,03,41,17.60
2021,06,22,03,42,17.60
2021,06,22,03,43,17.60
2021,06,22,03,44,17.50
2021,06,22,03,45,17.50
2021,06,22,03,46,17.50
2021,06,22,03,47,17.50
2021,06,22,03,48,17.50
2021,06,22,03,49,17.60
2021,06,22,03,50,17.60
2021,06,22,03,51,17.60
2021,06,22,03,52,17.60
2021,06,22,03,53,17.60
2021,06,22,03,54,17.60
2021,06,22,03,55,17.60
2021,06,22,03,56,17.60
2021,06,22,03,57,17.50
2021,06,22,03,58,17.50
2021,06,22,03,59,17.50
2021,06,22,04,00,17.50
2021,06,22,04,01,17.50
2021,06,22,04,02,17.50
2021,06,22,04,03,17.50
2021,06,22,04,04,17.50
2021,06,22,04,05,17.60
2021,06,22,04,06,17.50
2021,06,22,04,07,17.50
2021,06,22,04,08,17.50
2021,06,22,04,09,17.50
2021,06,22,04,10,17.50
2021,06,22,04,11,17.50
2021,06,22,04,12,17.50
2021,06,22,04,13,17.50
2021,06,22,04,14,17.50
2021,06,22,04,15,17.40
2021,06,22,04,16,17.40
2021,06,22,04,17,17.50
2021,06,22,04,18,17.50
2021,06,22,04,19,17.50
2021,06,22,04,20,17.60
2021,06,22,04,21,17.60
2021,06,22,04,22,17.60
2021,06,22,04,23,17.60
2021,06,22,04,24,17.50
2021,06,22,04,25,17.50
2021,06,22,04,26,17.50
2021,06,22,04,27,17.50
2021,06,22,04,28,17.40
2021,06,22,04,29,17.40
2021,06,22,04,30,17.40
2021,06,22,04,31,17.40
2021,06,22,04,32,17.30
2021,06,22,04,33,17.30
2021,06,22,04,34,17.30
2021,06,22,04,35,17.30
2021,06,22,04,36,17.30
2021,06,22,04,37,17.30
2021,06,22,04,38,17.30
2021,06,22,04,39,17.30
2021,06,22,04,40,17.20
2021,06,22,04,41,17.20
2021,06,22,04,42,17.20
2021,06,22,04,43,17.20
2021,06,22,04,44,17.20
2021,06,22,04,45,17.20
2021,06,22,04,46,17.20
2021,06,22,04,47,17.10
2021,06,22,04,48,17.10
2021,06,22,04,49,17.10
2021,06,22,04,50,17.10
2021,06,22,04,51,17.10
2021,06,22,04,52,17.10
2021,06,22,04,53,17.00
2021,06,22,04,54,17.00
2021,06,22,04,55,16.90
2021,06,22,04,56,16.90
2021,06,22,04,57,16.80
2021,06,22,04,58,16.80
2021,06,22,04,59,16.70
2021,06,22,05,00,16.70
2021,06,22,05,01,16.70
2021,06,22,05,02,16.70
2021,06,22,05,03,16.60
2021,06,22,05,04,16.60
2021,06,22,05,05,16.60
2021,06,22,05,06,16.60
2021,06,22,05,07,16.60
2021,06,22,05,08,16.60
2021,06,22,05,09,16.60
2021,06,22,05,10,16.60
2021,06,22,05,11,16.60
2021,06,22,05,12,16.60
2021,06,22,05,13,16.70
2021,06,22,05,14,16.70
2021,06,22,05,15,16.70
2021,06,22,05,16,16.70
2021,06,22,05,17,16.80
2021,06,22,05,18,16.80
2021,06,22,05,19,16.80
2021,06,22,05,20,16.80
2021,06,22,05,21,16.80
2021,06,22,05,22,16.80
2021,06,22,05,23,16.80
2021,06,22,05,24,16.80
2021,06,22,05,25,16.70
2021,06,22,05,26,16.70
2021,06,22,05,27,16.70
2021,06,22,05,28,16.60
2021,06,22,05,29,16.60
2021,06,22,05,30,16.60
2021,06,22,05,31,16.50
2021,06,22,05,32,16.50
2021,06,22,05,33,16.40
2021,06,22,05,34,16.40
2021,06,22,05,35,16.40
2021,06,22,05,36,16.40
2021,06,22,05,37,16.40
2021,06,22,05,38,16.40
2021,06,22,05,39,16.40
2021,06,22,05,40,16.30
2021,06,22,05,41,16.30
2021,06,22,05,42,16.30
2021,06,22,05,43,16.30
2021,06,22,05,44,16.20
2021,06,22,05,45,16.20
2021,06,22,05,46,16.20
2021,06,22,05,47,16.20
2021,06,22,05,48,16.20
2021,06,22,05,49,16.20
2021,06,22,05,50,16.20
2021,06,22,05,51,16.20
2021,06,22,05,52,16.20
2021,06,22,05,53,16.20
2021,06,22,05,54,16.20
2021,06,22,05,55,16.20
2021,06,22,05,56,16.20
2021,06,22,05,57,16.20
2021,06,22,05,58,16.20
2021,06,22,05,59,16.20
2021,06,22,06,00,16.20
2021,06,22,06,01,16.20
2021,06,22,06,02,16.20
2021,06,22,06,03,16.20
2021,06,22,06,04,16.10
2021,06,22,06,05,16.10
2021,06,22,06,06,16.10
2021,06,22,06,07,16.10
2021,06,22,06,08,16.10
2021,06,22,06,09,16.10
2021,06,22,06,10,16.10
2021,06,22,06,11,16.10
2021,06,22,06,12,16.10
2021,06,22,06,13,16.20
2021,06,22,06,14,16.20
2021,06,22,06,15,16.20
2021,06,22,06,16,16.20
2021,06,22,06,17,16.30
2021,06,22,06,18,16.30
2021,06,22,06,19,16.30
2021,06,22,06,20,16.50
2021,06,22,06,21,16.60
2021,06,22,06,22,16.60
2021,06,22,06,23,16.70
2021,06,22,06,24,16.70
2021,06,22,06,25,16.80
2021,06,22,06,26,16.90
2021,06,22,06,27,17.00
2021,06,22,06,28,17.20
2021,06,22,06,29,17.30
2021,06,22,06,30,17.50
2021,06,22,06,31,17.70
2021,06,22,06,32,18.00
2021,06,22,06,33,18.10
2021,06,22,06,34,18.20
2021,06,22,06,35,18.30
2021,06,22,06,36,18.40
2021,06,22,06,37,18.40
2021,06,22,06,38,18.40
2021,06,22,06,39,18.50
2021,06,22,06,40,18.50
2021,06,22,06,41,18.50
2021,06,22,06,42,18.60
2021,06,22,06,43,18.60
2021,06,22,06,44,18.60
2021,06,22,06,45,18.60
2021,06,22,06,46,18.60
2021,06,22,06,47,18.60
2021,06,22,06,48,18.60
2021,06,22,06,49,18.60
2021,06,22,06,50,18.60
2021,06,22,06,51,18.60
2021,06,22,06,52,18.60
2021,06,22,06,53,18.60
2021,06,22,06,54,18.60
2021,06,22,06,55,18.70
2021,06,22,06,56,18.70
2021,06,22,06,57,18.70
2021,06,22,06,58,18.80
2021,06,22,06,59,18.90
2021,06,22,07,00,19.00
2021,06,22,07,01,19.00
2021,06,22,07,02,19.10
2021,06,22,07,03,19.10
2021,06,22,07,04,19.20
2021,06,22,07,05,19.20
2021,06,22,07,06,19.20
2021,06,22,07,07,19.30
2021,06,22,07,08,19.30
2021,06,22,07,09,19.40
2021,06,22,07,10,19.40
2021,06,22,07,11,19.40
2021,06,22,07,12,19.40
2021,06,22,07,13,19.40
2021,06,22,07,14,19.40
2021,06,22,07,15,19.40
2021,06,22,07,16,19.40
2021,06,22,07,17,19.40
2021,06,22,07,18,19.40
2021,06,22,07,19,19.40
2021,06,22,07,20,19.30
2021,06,22,07,21,19.30
2021,06,22,07,22,19.30
2021,06,22,07,23,19.30
2021,06,22,07,24,19.30
2021,06,22,07,25,19.30
2021,06,22,07,26,19.30
2021,06,22,07,27,19.30
2021,06,22,07,28,19.30
2021,06,22,07,29,19.30
2021,06,22,07,30,19.30
2021,06,22,07,31,19.30
2021,06,22,07,32,19.30
2021,06,22,07,33,19.30
2021,06,22,07,34,19.30
2021,06,22,07,35,19.30
2021,06,22,07,36,19.30
2021,06,22,07,37,19.30
2021,06,22,07,38,19.40
2021,06,22,07,39,19.40
2021,06,22,07,40,19.40
2021,06,22,07,41,19.40
2021,06,22,07,42,19.40
2021,06,22,07,43,19.30
2021,06,22,07,44,19.30
2021,06,22,07,45,19.30
2021,06,22,07,46,19.30
2021,06,22,07,47,19.30
2021,06,22,07,48,19.30
2021,06,22,07,49,19.30
2021,06,22,07,50,19.30
2021,06,22,07,51,19.30
2021,06,22,07,52,19.30
2021,06,22,07,53,19.40
2021,06,22,07,54,19.40
2021,06,22,07,55,19.50
2021,06,22,07,56,19.50
2021,06,22,07,57,19.50
2021,06,22,07,58,19.50
2021,06,22,07,59,19.50
2021,06,22,08,00,19.50
2021,06,22,08,01,19.50
2021,06,22,08,02,19.50
2021,06,22,08,03,19.50
2021,06,22,08,04,19.60
2021,06,22,08,05,19.60
2021,06,22,08,06,19.70
2021,06,22,08,07,19.70
2021,06,22,08,08,19.80
2021,06,22,08,09,19.80
2021,06,22,08,10,19.80
2021,06,22,08,11,19.90
2021,06,22,08,12,19.90
2021,06,22,08,13,19.90
2021,06,22,08,14,20.00
2021,06,22,08,15,20.00
2021,06,22,08,16,20.10
2021,06,22,08,17,20.10
2021,06,22,08,18,20.10
2021,06,22,08,19,20.10
2021,06,22,08,20,20.10
2021,06,22,08,21,20.10
2021,06,22,08,22,20.10
2021,06,22,08,23,20.10
2021,06,22,08,24,20.00
2021,06,22,08,25,20.10
2021,06,22,08,26,20.00
2021,06,22,08,27,20.00
2021,06,22,08,28,20.00
2021,06,22,08,29,20.00
2021,06,22,08,30,20.10
2021,06,22,08,31,20.10
2021,06,22,08,32,20.10
2021,06,22,08,33,20.10
2021,06,22,08,34,20.10
2021,06,22,08,35,20.10
2021,06,22,08,36,20.10
2021,06,22,08,37,20.10
2021,06,22,08,38,20.10
2021,06,22,08,39,20.20
2021,06,22,08,40,20.20
2021,06,22,08,41,20.20
2021,06,22,08,42,20.30
2021,06,22,08,43,20.30
2021,06,22,08,44,20.30
2021,06,22,08,45,20.30
2021,06,22,08,46,20.30
2021,06,22,08,47,20.30
2021,06,22,08,48,20.40
2021,06,22,08,49,20.50
2021,06,22,08,50,20.50
2021,06,22,08,51,20.60
2021,06,22,08,52,20.60
2021,06,22,08,53,20.70
2021,06,22,08,54,20.70
2021,06,22,08,55,20.80
2021,06,22,08,56,20.80
2021,06,22,08,57,20.90
2021,06,22,08,58,20.90
2021,06,22,08,59,20.90
2021,06,22,09,00,20.90
2021,06,22,09,01,20.90
2021,06,22,09,02,20.90
2021,06,22,09,03,20.90
2021,06,22,09,04,21.00
2021,06,22,09,05,21.00
2021,06,22,09,06,20.90
2021,06,22,09,07,21.00
2021,06,22,09,08,21.00
2021,06,22,09,09,21.00
2021,06,22,09,10,21.00
2021,06,22,09,11,21.10
2021,06,22,09,12,21.20
2021,06,22,09,13,21.30
2021,06,22,09,14,21.30
2021,06,22,09,15,21.30
2021,06,22,09,16,21.40
2021,06,22,09,17,21.40
2021,06,22,09,18,21.40
2021,06,22,09,19,21.50
2021,06,22,09,20,21.60
2021,06,22,09,21,21.50
2021,06,22,09,22,21.50
2021,06,22,09,23,21.40
2021,06,22,09,24,21.40
2021,06,22,09,25,21.50
2021,06,22,09,26,21.60
2021,06,22,09,27,21.60
2021,06,22,09,28,21.60
2021,06,22,09,29,21.60
2021,06,22,09,30,21.60
2021,06,22,09,31,21.60
2021,06,22,09,32,21.60
2021,06,22,09,33,21.60
2021,06,22,09,34,21.60
2021,06,22,09,35,21.70
2021,06,22,09,36,21.70
2021,06,22,09,37,21.70
2021,06,22,09,38,21.70
2021,06,22,09,39,21.70
2021,06,22,09,40,21.70
2021,06,22,09,41,21.60
2021,06,22,09,42,21.70
2021,06,22,09,43,21.70
2021,06,22,09,44,21.70
2021,06,22,09,45,21.70
2021,06,22,09,46,21.80
2021,06,22,09,47,21.70
2021,06,22,09,48,21.70
2021,06,22,09,49,21.60
2021,06,22,09,50,21.70
2021,06,22,09,51,21.70
2021,06,22,09,52,21.70
2021,06,22,09,53,21.80
2021,06,22,09,54,21.90
2021,06,22,09,55,21.90
2021,06,22,09,56,21.90
2021,06,22,09,57,22.00
2021,06,22,09,58,21.90
2021,06,22,09,59,21.80
2021,06,22,10,00,21.80
2021,06,22,10,01,21.80
2021,06,22,10,02,21.80
2021,06,22,10,03,21.80
2021,06,22,10,04,21.80
2021,06,22,10,05,21.80
2021,06,22,10,06,21.80
2021,06,22,10,07,21.80
2021,06,22,10,08,21.80
2021,06,22,10,09,21.80
2021,06,22,10,10,21.80
2021,06,22,10,11,21.80
2021,06,22,10,12,21.90
2021,06,22,10,13,21.90
2021,06,22,10,14,22.00
2021,06,22,10,15,22.10
2021,06,22,10,16,22.10
2021,06,22,10,17,22.00
2021,06,22,10,18,22.00
2021,06,22,10,19,22.00
2021,06,22,10,20,22.00
2021,06,22,10,21,22.10
2021,06,22,10,22,22.10
2021,06,22,10,23,22.20
2021,06,22,10,24,22.20
2021,06,22,10,25,22.20
2021,06,22,10,26,22.20
2021,06,22,10,27,22.20
2021,06,22,10,28,22.30
2021,06,22,10,29,22.20
2021,06,22,10,30,22.10
2021,06,22,10,31,22.10
2021,06,22,10,32,22.10
2021,06,22,10,33,22.20
2021,06,22,10,34,22.20
2021,06,22,10,35,22.10
2021,06,22,10,36,22.00
2021,06,22,10,37,22.00
2021,06,22,10,38,22.00
2021,06,22,10,39,22.10
2021,06,22,10,40,22.10
2021,06,22,10,41,22.10
2021,06,22,10,42,22.10
2021,06,22,10,43,22.10
2021,06,22,10,44,22.20
2021,06,22,10,45,22.20
2021,06,22,10,46,22.20
2021,06,22,10,47,22.30
2021,06,22,10,48,22.40
2021,06,22,10,49,22.40
2021,06,22,10,50,22.30
2021,06,22,10,51,22.20
2021,06,22,10,52,22.20
2021,06,22,10,53,22.30
2021,06,22,10,54,22.40
2021,06,22,10,55,22.50
2021,06,22,10,56,22.50
2021,06,22,10,57,22.50
2021,06,22,10,58,22.50
2021,06,22,10,59,22.50
2021,06,22,11,00,22.40
2021,06,22,11,01,22.40
2021,06,22,11,02,22.40
2021,06,22,11,03,22.40
2021,06,22,11,04,22.40
2021,06,22,11,05,22.40
2021,06,22,11,06,22.40
2021,06,22,11,07,22.40
2021,06,22,11,08,22.50
2021,06,22,11,09,22.60
2021,06,22,11,10,22.60
2021,06,22,11,11,22.60
2021,06,22,11,12,22.70
2021,06,22,11,13,22.90
2021,06,22,11,14,22.90
2021,06,22,11,15,23.00
2021,06,22,11,16,23.00
2021,06,22,11,17,23.00
2021,06,22,11,18,23.10
2021,06,22,11,19,23.10
2021,06,22,11,20,23.10
2021,06,22,11,21,23.10
2021,06,22,11,22,23.00
2021,06,22,11,23,22.90
2021,06,22,11,24,22.90
2021,06,22,11,25,22.80
2021,06,22,11,26,22.80
2021,06,22,11,27,22.80
2021,06,22,11,28,22.80
2021,06,22,11,29,22.70
2021,06,22,11,30,22.70
2021,06,22,11,31,22.70
2021,06,22,11,32,22.60
2021,06,22,11,33,22.50
2021,06,22,11,34,22.50
2021,06,22,11,35,22.40
2021,06,22,11,36,22.50
2021,06,22,11,37,22.60
2021,06,22,11,38,22.70
2021,06,22,11,39,22.70
2021,06,22,11,40,22.80
2021,06,22,11,41,22.90
2021,06,22,11,42,23.00
2021,06,22,11,43,23.00
2021,06,22,11,44,23.10
2021,06,22,11,45,23.20
2021,06,22,11,46,23.20
2021,06,22,11,47,23.10
2021,06,22,11,48,23.10
2021,06,22,11,49,23.10
2021,06,22,11,50,23.10
2021,06,22,11,51,23.10
2021,06,22,11,52,23.10
2021,06,22,11,53,23.10
2021,06,22,11,54,23.20
2021,06,22,11,55,23.30
2021,06,22,11,56,23.30
2021,06,22,11,57,23.40
2021,06,22,11,58,23.50
2021,06,22,11,59,23.60
2021,06,22,12,00,23.70
2021,06,22,12,01,23.60
2021,06,22,12,02,23.70
2021,06,22,12,03,23.80
2021,06,22,12,04,23.80
2021,06,22,12,05,23.90
2021,06,22,12,06,23.90
2021,06,22,12,07,24.00
2021,06,22,12,08,24.00
2021,06,22,12,09,23.90
2021,06,22,12,10,23.80
2021,06,22,12,11,23.60
2021,06,22,12,12,23.50
2021,06,22,12,13,23.50
2021,06,22,12,14,23.50
2021,06,22,12,15,23.40
2021,06,22,12,16,23.40
2021,06,22,12,17,23.50
2021,06,22,12,18,23.60
2021,06,22,12,19,23.60
2021,06,22,12,20,23.60
2021,06,22,12,21,23.70
2021,06,22,12,22,23.80
2021,06,22,12,23,23.70
2021,06,22,12,24,23.60
2021,06,22,12,25,23.60
2021,06,22,12,26,23.60
2021,06,22,12,27,23.60
2021,06,22,12,28,23.70
2021,06,22,12,29,23.80
2021,06,22,12,30,23.90
2021,06,22,12,31,23.90
2021,06,22,12,32,23.90
2021,06,22,12,33,23.80
2021,06,22,12,34,23.90
2021,06,22,12,35,23.90
2021,06,22,12,36,23.90
2021,06,22,12,37,23.90
2021,06,22,12,38,24.00
2021,06,22,12,39,24.10
2021,06,22,12,40,24.20
2021,06,22,12,41,24.20
2021,06,22,12,42,24.20
2021,06,22,12,43,24.30
2021,06,22,12,44,24.30
2021,06,22,12,45,24.40
2021,06,22,12,46,24.40
2021,06,22,12,47,24.30
2021,06,22,12,48,24.20
2021,06,22,12,49,24.20
2021,06,22,12,50,24.20
2021,06,22,12,51,24.20
2021,06,22,12,52,24.40
2021,06,22,12,53,24.40
2021,06,22,12,54,24.40
2021,06,22,12,55,24.30
2021,06,22,12,56,24.30
2021,06,22,12,57,24.30
2021,06,22,12,58,24.40
2021,06,22,12,59,24.50
2021,06,22,13,00,24.60
2021,06,22,13,01,24.60
2021,06,22,13,02,24.70
2021,06,22,13,03,24.60
2021,06,22,13,04,24.60
2021,06,22,13,05,24.60
2021,06,22,13,06,24.70
2021,06,22,13,07,24.70
2021,06,22,13,08,24.70
2021,06,22,13,09,24.80
2021,06,22,13,10,24.70
2021,06,22,13,11,24.70
2021,06,22,13,12,24.60
2021,06,22,13,13,24.60
2021,06,22,13,14,24.60
2021,06,22,13,15,24.60
2021,06,22,13,16,24.50
2021,06,22,13,17,24.50
2021,06,22,13,18,24.40
2021,06,22,13,19,24.40
2021,06,22,13,20,24.30
2021,06,22,13,21,24.20
2021,06,22,13,22,24.10
2021,06,22,13,23,24.10
2021,06,22,13,24,24.20
2021,06,22,13,25,24.20
2021,06,22,13,26,24.10
2021,06,22,13,27,24.10
2021,06,22,13,28,24.00
2021,06,22,13,29,24.00
2021,06,22,13,30,24.20
2021,06,22,13,31,24.30
2021,06,22,13,32,24.30
2021,06,22,13,33,24.40
2021,06,22,13,34,24.40
2021,06,22,13,35,24.30
2021,06,22,13,36,24.20
2021,06,22,13,37,24.10
2021,06,22,13,38,23.90
2021,06,22,13,39,23.80
2021,06,22,13,40,23.80
2021,06,22,13,41,23.90
2021,06,22,13,42,24.00
2021,06,22,13,43,24.00
2021,06,22,13,44,23.90
2021,06,22,13,45,24.00
2021,06,22,13,46,24.10
2021,06,22,13,47,24.20
2021,06,22,13,48,24.20
2021,06,22,13,49,24.20
2021,06,22,13,50,24.30
2021,06,22,13,51,24.20
2021,06,22,13,52,24.20
2021,06,22,13,53,24.30
2021,06,22,13,54,24.30
2021,06,22,13,55,24.20
2021,06,22,13,56,24.20
2021,06,22,13,57,24.20
2021,06,22,13,58,24.10
2021,06,22,13,59,24.00
2021,06,22,14,00,24.00
2021,06,22,14,01,23.90
2021,06,22,14,02,24.00
2021,06,22,14,03,23.90
2021,06,22,14,04,24.00
2021,06,22,14,05,24.20
2021,06,22,14,06,24.20
2021,06,22,14,07,24.20
2021,06,22,14,08,24.20
2021,06,22,14,09,24.20
2021,06,22,14,10,24.30
2021,06,22,14,11,24.30
2021,06,22,14,12,24.40
2021,06,22,14,13,24.50
2021,06,22,14,14,24.60
2021,06,22,14,15,24.60
2021,06,22,14,16,24.60
2021,06,22,14,17,24.60
2021,06,22,14,18,24.70
2021,06,22,14,19,24.80
2021,06,22,14,20,24.90
2021,06,22,14,21,24.90
2021,06,22,14,22,24.70
2021,06,22,14,23,24.70
2021,06,22,14,24,24.70
2021,06,22,14,25,24.70
2021,06,22,14,26,24.60
2021,06,22,14,27,24.70
2021,06,22,14,28,24.70
2021,06,22,14,29,24.70
2021,06,22,14,30,24.60
2021,06,22,14,31,24.50
2021,06,22,14,32,24.50
2021,06,22,14,33,24.60
2021,06,22,14,34,24.80
2021,06,22,14,35,24.80
2021,06,22,14,36,24.80
2021,06,22,14,37,24.80
2021,06,22,14,38,24.80
2021,06,22,14,39,24.70
2021,06,22,14,40,24.80
2021,06,22,14,41,24.80
2021,06,22,14,42,24.90
2021,06,22,14,43,24.90
2021,06,22,14,44,25.00
2021,06,22,14,45,25.10
2021,06,22,14,46,25.20
2021,06,22,14,47,25.20
2021,06,22,14,48,25.10
2021,06,22,14,49,24.90
2021,06,22,14,50,25.00
2021,06,22,14,51,25.00
2021,06,22,14,52,25.00
2021,06,22,14,53,25.20
2021,06,22,14,54,25.20
2021,06,22,14,55,25.20
2021,06,22,14,56,25.20
2021,06,22,14,57,25.10
2021,06,22,14,58,25.10
2021,06,22,14,59,25.20
2021,06,22,15,00,25.30
2021,06,22,15,01,25.40
2021,06,22,15,02,25.40
2021,06,22,15,03,25.20
2021,06,22,15,04,25.00
2021,06,22,15,05,24.90
2021,06,22,15,06,25.00
2021,06,22,15,07,25.20
2021,06,22,15,08,25.30
2021,06,22,15,09,25.50
2021,06,22,15,10,25.50
2021,06,22,15,11,25.50
2021,06,22,15,12,25.30
2021,06,22,15,13,25.20
2021,06,22,15,14,25.20
2021,06,22,15,15,25.10
2021,06,22,15,16,25.10
2021,06,22,15,17,25.10
2021,06,22,15,18,25.10
2021,06,22,15,19,25.20
2021,06,22,15,20,25.30
2021,06,22,15,21,25.40
2021,06,22,15,22,25.40
2021,06,22,15,23,25.30
2021,06,22,15,24,25.20
2021,06,22,15,25,25.10
2021,06,22,15,26,25.10
2021,06,22,15,27,25.00
2021,06,22,15,28,25.00
2021,06,22,15,29,25.10
2021,06,22,15,30,25.20
2021,06,22,15,31,25.30
2021,06,22,15,32,25.40
2021,06,22,15,33,25.40
2021,06,22,15,34,25.50
2021,06,22,15,35,25.50
2021,06,22,15,36,25.40
2021,06,22,15,37,25.30
2021,06,22,15,38,25.10
2021,06,22,15,39,24.90
2021,06,22,15,40,24.80
2021,06,22,15,41,24.70
2021,06,22,15,42,24.60
2021,06,22,15,43,24.60
2021,06,22,15,44,24.70
2021,06,22,15,45,24.70
2021,06,22,15,46,24.70
2021,06,22,15,47,24.60
2021,06,22,15,48,24.60
2021,06,22,15,49,24.60
2021,06,22,15,50,24.50
2021,06,22,15,51,24.50
2021,06,22,15,52,24.60
2021,06,22,15,53,24.70
2021,06,22,15,54,24.70
2021,06,22,15,55,24.70
2021,06,22,15,56,24.70
2021,06,22,15,57,24.70
2021,06,22,15,58,24.80
2021,06,22,15,59,24.90
2021,06,22,16,00,24.80
2021,06,22,16,01,24.80
2021,06,22,16,02,24.70
2021,06,22,16,03,24.70
2021,06,22,16,04,24.70
2021,06,22,16,05,24.80
2021,06,22,16,06,24.90
2021,06,22,16,07,25.00
2021,06,22,16,08,25.00
2021,06,22,16,09,25.00
2021,06,22,16,10,24.90
2021,06,22,16,11,24.90
2021,06,22,16,12,24.90
2021,06,22,16,13,25.00
2021,06,22,16,14,25.20
2021,06,22,16,15,25.30
2021,06,22,16,16,25.30
2021,06,22,16,17,25.30
2021,06,22,16,18,25.40
2021,06,22,16,19,25.40
2021,06,22,16,20,25.40
2021,06,22,16,21,25.30
2021,06,22,16,22,25.20
2021,06,22,16,23,25.10
2021,06,22,16,24,25.00
2021,06,22,16,25,25.00
2021,06,22,16,26,25.00
2021,06,22,16,27,25.00
2021,06,22,16,28,24.90
2021,06,22,16,29,25.00
2021,06,22,16,30,25.00
2021,06,22,16,31,25.10
2021,06,22,16,32,25.10
2021,06,22,16,33,25.10
2021,06,22,16,34,25.10
2021,06,22,16,35,25.20
2021,06,22,16,36,25.20
2021,06,22,16,37,25.30
2021,06,22,16,38,25.30
2021,06,22,16,39,25.10
2021,06,22,16,40,25.00
2021,06,22,16,41,25.00
2021,06,22,16,42,25.10
2021,06,22,16,43,25.20
2021,06,22,16,44,25.20
2021,06,22,16,45,25.20
2021,06,22,16,46,25.20
2021,06,22,16,47,25.20
2021,06,22,16,48,25.30
2021,06,22,16,49,25.20
2021,06,22,16,50,25.20
2021,06,22,16,51,25.10
2021,06,22,16,52,25.10
2021,06,22,16,53,25.10
2021,06,22,16,54,25.10
2021,06,22,16,55,25.00
2021,06,22,16,56,25.10
2021,06,22,16,57,25.10
2021,06,22,16,58,25.20
2021,06,22,16,59,25.30
2021,06,22,17,00,25.40
2021,06,22,17,01,25.30
2021,06,22,17,02,25.30
2021,06,22,17,03,25.40
2021,06,22,17,04,25.50
2021,06,22,17,05,25.60
2021,06,22,17,06,25.70
2021,06,22,17,07,25.70
2021,06,22,17,08,25.60
2021,06,22,17,09,25.70
2021,06,22,17,10,25.70
2021,06,22,17,11,25.70
2021,06,22,17,12,25.70
2021,06,22,17,13,25.60
2021,06,22,17,14,25.60
2021,06,22,17,15,25.60
2021,06,22,17,16,25.60
2021,06,22,17,17,25.50
2021,06,22,17,18,25.40
2021,06,22,17,19,25.30